Location: Burgberg
(50.1428°N, 11.0671°E)
Time: 13:15:16
(UTC+00:00)

NOSS 3-4 (C) - Pass Details

Date: 26 January 2020
Orbit: 905 x 1307 km, 63.4° (Epoch: 06 February)

Event Time Altitude Azimuth Distance (km) Brightness Sun altitude
Exits shadow 05:11:05 14° 233° (SW) 2,335 5.1 -17.0°
Maximum altitude 05:16:22 71° 317° (NW) 1,006 3.4 -16.2°
Drops below altitude 10° 05:22:52 10° 42° (NE) 2,805 6.3 -15.2°
Sets 05:25:37 0° 45° (NE) 3,818 7.1 -14.7°
